Location: Newark
(45.8000°N, 5.7000°E)
Time: 19:58:37
(UTC+00:00)

ISS - Visible Passes

Search period start: 21 November 2019 00:00
Search period end: 01 December 2019 00:00
Orbit: 412 x 421 km, 51.6° (Epoch: 22 November)

Date Brightness Start Highest point End Pass type
(mag) Time Alt. Az. Time Alt. Az. Time Alt. Az.
21 Nov -1.6 18:14:46 10° SSW 18:16:02 19° SSW 18:16:02 19° SSW visible
22 Nov -2.2 17:26:58 10° S 17:29:35 21° SE 17:29:53 21° SE visible
22 Nov -0.3 19:02:44 10° WSW 19:02:48 11° WSW 19:02:48 11° WSW visible
23 Nov -1.5 16:39:41 10° SSE 16:41:23 13° SE 16:43:04 10° ESE visible
23 Nov -2.5 18:14:18 10° WSW 18:16:34 40° SW 18:16:34 40° SW visible
24 Nov -3.4 17:26:00 10° SW 17:29:16 51° SE 17:30:15 36° E visible
24 Nov -0.3 19:02:55 10° W 19:03:09 12° W 19:03:09 12° W visible
25 Nov -2.6 16:37:55 10° SSW 16:40:56 32° SE 16:43:52 11° ENE visible
25 Nov -2.5 18:14:18 10° W 18:16:46 39° WNW 18:16:46 39° WNW visible
26 Nov -3.7 17:25:45 10° WSW 17:29:05 72° NNW 17:30:19 36° NE visible
26 Nov -0.2 19:03:11 10° WNW 19:03:13 10° WNW 19:03:13 10° WNW visible
27 Nov -3.7 16:37:18 10° SW 16:40:38 77° SSE 16:43:49 11° ENE visible
27 Nov -2.0 18:14:31 10° WNW 18:16:43 28° NW 18:16:43 28° NW visible
28 Nov -2.9 17:25:49 10° W 17:29:01 40° NNW 17:30:11 29° NNE visible
29 Nov -3.3 16:37:11 10° W 16:40:27 53° NNW 16:43:37 11° ENE visible
29 Nov -1.7 18:14:41 10° WNW 18:16:30 23° NW 18:16:30 23° NW visible
30 Nov -2.5 17:26:00 10° WNW 17:29:02 30° N 17:29:56 26° NNE visible
